FW3233 Weather Reports


time (UTC)temp
C
wind
direction
speed
KPH
gust
KPH
rain 1hr
cm
rain 24hr
cm
rain mn
cm
humidity
%
barometer
mb
20260505200726 21 197 4.8 9.7 0.00 1.63 1.63 92 1007.1
20260505200222 21 177 1.6 3.2 0.00 1.63 1.63 92 1006.9
20260505195718 21 149 1.6 4.8 0.00 1.63 1.63 92 1007.0
20260505195215 21 202 1.6 1.6 0.00 1.63 1.63 92 1007.2
20260505194713 21 191 1.6 4.8 0.00 1.63 1.63 92 1007.2
20260505194209 21 186 3.2 12.9 0.00 1.63 1.63 92 1007.2
20260505193705 21 185 3.2 11.3 0.00 1.63 1.63 91 1007.2
20260505193202 21 192 1.6 4.8 0.00 1.63 1.63 91 1007.1
20260505192701 21 169 1.6 4.8 0.00 1.63 1.63 92 1006.9
20260505192158 21 196 1.6 4.8 0.00 1.63 1.63 92 1007.0
20260505191656 21 194 3.2 3.2 0.00 1.63 1.63 92 1007.1
20260505191154 21 178 1.6 4.8 0.00 1.63 1.63 93 1007.1
20260505190650 20 207 8.0 9.7 0.00 1.63 1.63 93 1007.0
20260505190150 20 188 3.2 9.7 0.00 1.63 1.63 94 1006.9
20260505185647 20 195 6.4 11.3 0.00 1.63 1.63 96 1007.0
20260505185143 20 210 1.6 6.4 0.00 1.63 1.63 99 1006.9
20260505184639 20 206 0.0 3.2 0.00 1.63 1.63 99 1006.9
20260505184136 20 173 3.2 4.8 0.00 1.63 1.63 99 1006.8
20260505183633 20 184 1.6 3.2 0.00 1.63 1.63 99 1006.8
20260505183131 19 175 4.8 6.4 0.00 1.63 1.63 99 1007.0
20260505182627 19 150 1.6 4.8 0.00 1.63 1.63 99 1007.0
20260505182124 19 206 0.0 6.4 0.00 1.63 1.63 99 1007.0
20260505181620 19 185 1.6 1.6 0.00 1.63 1.63 99 1007.0
20260505181118 19 172 3.2 4.8 0.00 1.63 1.63 99 1006.9
20260505180614 18 192 3.2 4.8 0.00 1.63 1.63 99 1007.0
20260505180112 18 133 3.2 4.8 0.00 1.63 1.63 99 1007.4
20260505175607 18 189 0.0 6.4 0.00 1.63 1.63 99 1007.3
20260505175104 18 172 4.8 11.3 0.00 1.63 1.63 99 1007.3
20260505174601 18 198 0.0 4.8 0.00 1.63 1.63 99 1007.5
20260505174056 18 205 3.2 4.8 0.00 1.63 1.63 99 1007.6
20260505173553 18 210 1.6 6.4 0.00 1.63 1.63 99 1007.5
20260505173050 18 202 6.4 9.7 0.00 1.63 1.63 99 1007.4
20260505172548 18 191 1.6 6.4 0.00 1.63 1.63 99 1007.6
20260505172044 18 177 1.6 6.4 0.00 1.63 1.63 99 1007.5
20260505171539 18 205 3.2 9.7 0.00 1.63 1.63 99 1007.8
20260505171036 18 178 0.0 3.2 0.00 1.63 1.63 99 1007.7
20260505170533 18 198 4.8 6.4 0.00 1.63 1.63 99 1008.0
20260505170030 18 155 3.2 3.2 0.00 1.63 1.63 99 1007.8
20260505165525 18 194 3.2 4.8 0.00 1.63 1.63 99 1007.8
20260505165021 18 202 3.2 4.8 0.00 1.63 1.63 99 1007.9
20260505164517 18 181 0.0 9.7 0.00 1.63 1.63 99 1007.9
20260505164015 18 176 1.6 3.2 0.00 1.63 1.63 99 1008.1
20260505163513 17 181 0.0 1.6 0.00 1.63 1.63 99 1008.0
20260505163009 17 195 0.0 3.2 0.00 1.63 1.63 99 1008.0
20260505162457 17 191 1.6 4.8 0.00 1.63 1.63 99 1008.0
20260505161953 17 199 1.6 1.6 0.00 1.63 1.63 99 1008.1
20260505161445 17 200 0.0 1.6 0.00 1.63 1.63 99 1008.4
20260505160942 17 197 0.0 3.2 0.00 1.63 1.63 99 1008.3
20260505160440 17 177 0.0 3.2 0.00 1.63 1.63 99 1008.3
20260505152916 17 199 1.6 3.2 0.00 1.63 1.63 99 1008.1
20260505152414 17 188 0.0 4.8 0.00 1.63 1.63 99 1008.2
20260505151913 17 183 0.0 4.8 0.00 1.63 1.63 99 1008.0
20260505151410 17 180 1.6 4.8 0.00 1.63 1.63 99 1008.3
20260505150907 17 186 0.0 3.2 0.00 1.63 1.63 99 1008.2
20260505150404 17 164 3.2 6.4 0.00 1.63 1.63 99 1008.1
20260505140323 17 110 0.0 0.0 0.00 1.63 1.63 99 1008.7
20260505130246 16 189 1.6 1.6 0.36 1.30 1.30 99 1008.6
20260505124737 16 68 1.6 1.6 0.48 1.17 1.17 99 1008.4
20260505124234 16 165 0.0 1.6 1.50 1.14 1.14 99 1008.4
20260505123729 16 186 0.0 1.6 2.46 1.07 1.07 99 1008.4
20260505123226 16 200 0.0 0.0 2.59 0.89 0.89 99 1008.8
20260505122722 16 164 1.6 4.8 1.37 0.66 0.66 99 1008.4
20260505122219 16 36 1.6 3.2 0.30 0.46 0.46 99 1008.6
20260505121711 16 338 1.6 3.2 0.13 0.43 0.43 99 1008.3
20260505121207 16 141 0.0 0.0 0.18 0.41 0.41 99 1008.2
20260505120704 16 141 0.0 0.0 0.18 0.41 0.41 99 1008.1
20260505120159 16 140 0.0 0.0 0.00 0.38 0.38 99 1008.1
20260505115653 16 139 0.0 0.0 0.00 0.38 0.38 99 1007.8
20260505115151 16 140 0.0 0.0 0.30 0.38 0.38 99 1007.9
20260505114648 16 139 0.0 0.0 1.07 0.38 0.38 99 1008.1
20260505114144 16 133 0.0 0.0 1.07 0.33 0.33 99 1008.3
20260505113641 16 217 0.0 0.0 0.18 0.18 0.18 99 1008.5
20260505113137 16 205 0.0 1.6 0.13 0.15 0.15 99 1007.8
20260505112634 16 196 0.0 3.2 0.13 0.15 0.15 99 1007.4
20260505112132 16 167 0.0 0.0 0.00 0.13 0.13 99 1006.9
20260505111631 16 171 1.6 4.8 0.18 0.13 0.13 98 1007.3
20260505111127 16 190 1.6 3.2 0.18 0.13 0.13 98 1006.9
20260505110624 16 190 0.0 0.0 0.13 0.10 0.10 97 1007.0
20260505110121 16 189 0.0 0.0 0.43 0.10 0.10 96 1007.1
20260505102057 18 194 3.2 4.8 0.00 0.00 0.00 82 1007.0
20260505101555 18 154 1.6 3.2 0.00 0.00 0.00 81 1007.2
20260505101051 18 179 0.0 4.8 0.00 0.00 0.00 81 1007.2
20260505100548 18 209 3.2 6.4 0.00 0.00 0.00 81 1007.3
20260505100045 18 184 1.6 3.2 0.00 0.00 0.00 81 1007.1
20260505095541 18 188 3.2 6.4 0.00 0.00 0.00 81 1007.4
20260505095037 18 175 1.6 3.2 0.00 0.00 0.00 81 1007.3
20260505094534 18 173 0.0 6.4 0.00 0.00 0.00 80 1007.2
20260505094030 18 196 1.6 4.8 0.00 0.00 0.00 80 1007.2
20260505093527 18 199 1.6 4.8 0.00 0.00 0.00 80 1007.1
20260505093024 18 167 1.6 3.2 0.00 0.00 0.00 80 1007.0
20260505092522 18 190 1.6 3.2 0.00 0.00 0.00 80 1007.1
20260505092020 18 175 1.6 4.8 0.00 0.00 0.00 79 1007.2
20260505091516 18 183 1.6 3.2 0.00 0.00 0.00 79 1006.9
20260505091014 18 184 1.6 3.2 0.00 0.00 0.00 79 1007.0
20260505090512 18 151 1.6 4.8 0.00 0.00 0.00 79 1007.1
20260505090010 18 189 0.0 1.6 0.00 0.00 0.00 79 1007.2
20260505085508 18 175 0.0 1.6 0.00 0.00 0.00 79 1007.0
20260505085006 18 176 1.6 3.2 0.00 0.00 0.00 79 1007.3
20260505084504 18 174 0.0 3.2 0.00 0.00 0.00 79 1007.2
20260505084001 18 159 1.6 4.8 0.00 0.00 0.00 78 1007.3
20260505083458 18 202 1.6 4.8 0.00 0.00 0.00 78 1007.2
20260505082954 18 208 0.0 1.6 0.00 0.00 0.00 78 1007.3
20260505082450 18 185 1.6 3.2 0.00 0.00 0.00 78 1007.2
20260505081947 18 190 1.6 4.8 0.00 0.00 0.00 77 1007.4
20260505081444 18 173 3.2 4.8 0.00 0.00 0.00 77 1007.4
20260505080941 18 183 3.2 4.8 0.00 0.00 0.00 77 1007.8
20260505080437 18 187 3.2 3.2 0.00 0.00 0.00 77 1007.6
20260505075932 18 187 1.6 1.6 0.00 0.00 0.00 77 1007.7
20260505075429 18 186 1.6 4.8 0.00 0.00 0.00 77 1007.7
20260505074927 18 188 0.0 3.2 0.00 0.00 0.00 76 1007.9
20260505074424 18 158 1.6 4.8 0.00 0.00 0.00 76 1008.0
20260505073921 18 215 1.6 3.2 0.00 0.00 0.00 76 1008.0
20260505073419 18 184 1.6 4.8 0.00 0.00 0.00 75 1007.9
20260505072916 18 193 0.0 3.2 0.00 0.00 0.00 75 1007.9
20260505072412 18 196 0.0 3.2 0.00 0.00 0.00 75 1008.0
20260505071908 18 197 0.0 3.2 0.00 0.00 0.00 75 1008.0
20260505071404 18 195 0.0 3.2 0.00 0.00 0.00 75 1008.1
20260505070903 18 186 1.6 3.2 0.00 0.00 0.00 75 1008.1
20260505070358 18 180 0.0 3.2 0.00 0.00 0.00 75 1008.2
20260505065854 18 181 0.0 4.8 0.00 0.00 0.00 75 1008.1
20260505065351 17 194 0.0 3.2 0.00 0.00 0.00 74 1008.2
20260505064848 17 178 1.6 3.2 0.00 0.00 0.00 75 1008.5
20260505064345 17 180 1.6 3.2 0.00 0.00 0.00 75 1008.5
20260505063844 17 194 0.0 4.8 0.00 0.00 0.00 75 1008.5
20260505063339 17 183 0.0 3.2 0.00 0.00 0.00 75 1008.6
20260505062836 17 179 0.0 1.6 0.00 0.00 0.00 76 1008.6
20260505062333 17 182 1.6 1.6 0.00 0.00 0.00 75 1008.7
20260505061830 17 186 0.0 0.0 0.00 0.00 0.00 76 1008.8
20260505061328 17 188 0.0 1.6 0.00 0.00 0.00 76 1009.0
20260505060825 17 182 1.6 1.6 0.00 0.00 0.00 75 1009.0
20260505060322 17 186 0.0 1.6 0.00 0.00 0.00 76 1009.1
20260505055818 17 186 1.6 1.6 0.00 0.00 0.00 76 1009.1
20260505055314 17 188 0.0 0.0 0.00 0.00 0.00 77 1009.2
20260505054812 17 189 0.0 0.0 0.00 0.00 0.00 79 1009.3
20260505054309 17 194 0.0 0.0 0.00 0.00 0.00 79 1009.3
20260505053807 17 194 0.0 0.0 0.00 0.00 0.00 78 1009.3
20260505053303 17 191 0.0 0.0 0.00 0.00 0.00 77 1009.3
20260505052800 17 190 0.0 0.0 0.00 0.00 0.00 77 1009.5
20260505052257 17 190 0.0 0.0 0.00 0.00 0.00 78 1009.5
20260505051754 17 189 0.0 0.0 0.00 0.00 0.00 77 1009.3
20260505051252 17 189 0.0 0.0 0.00 0.00 0.00 77 1009.4
20260505050750 17 189 0.0 0.0 0.00 0.00 0.00 75 1009.4
20260505050248 18 186 0.0 0.0 0.00 0.00 0.00 74 1009.4
20260505041718 17 177 0.0 0.0 0.00 0.00 0.00 78 1009.5
20260505041215 17 177 0.0 0.0 0.00 0.00 0.00 78 1009.4
20260505040712 17 177 0.0 0.0 0.00 0.00 0.00 79 1009.7
20260505040209 17 177 0.0 0.0 0.00 0.00 0.00 79 1009.6
20260505035706 17 177 0.0 0.0 0.00 0.00 0.00 78 1009.5
20260505035202 17 177 0.0 0.0 0.00 0.00 0.00 78 1009.6
20260505034658 17 177 0.0 0.0 0.00 0.00 0.00 78 1009.7
20260505034151 17 177 0.0 0.0 0.00 0.00 0.00 77 1009.7
20260505033646 17 177 0.0 0.0 0.00 0.00 0.00 77 1009.7
20260505033145 17 177 0.0 0.0 0.00 0.00 0.00 76 1009.7
20260505032643 17 177 0.0 0.0 0.00 0.00 0.00 77 1009.6
20260505032139 17 177 0.0 0.0 0.00 0.00 0.00 75 1009.5
20260505031636 17 177 0.0 0.0 0.00 0.00 0.00 75 1009.6
20260505031132 17 177 0.0 0.0 0.00 0.00 0.00 75 1009.6
20260505030629 17 177 0.0 0.0 0.00 0.00 0.00 76 1009.7
20260505030125 17 177 0.0 0.0 0.00 0.00 0.00 75 1009.3
20260505025621 18 177 0.0 0.0 0.00 0.00 0.00 75 1009.3
20260505025120 18 177 0.0 0.0 0.00 0.00 0.00 74 1009.4
20260505024617 18 177 0.0 0.0 0.00 0.00 0.00 74 1009.3
20260505024114 18 177 0.0 0.0 0.00 0.00 0.00 73 1009.2
20260505023611 18 176 0.0 0.0 0.00 0.00 0.00 73 1009.3
20260505023109 18 177 0.0 0.0 0.00 0.00 0.00 72 1009.1
20260505022606 18 177 0.0 0.0 0.00 0.00 0.00 71 1009.2
20260505022103 19 176 0.0 0.0 0.00 0.00 0.00 70 1009.1
20260505021600 20 177 0.0 0.0 0.00 0.00 0.00 69 1009.1
20260505021057 20 177 0.0 0.0 0.00 0.00 0.00 69 1008.8
20260505020556 20 187 0.0 0.0 0.00 0.00 0.00 68 1008.9
20260505020054 20 178 0.0 0.0 0.00 0.00 0.00 69 1008.8
20260505015551 20 178 0.0 0.0 0.00 0.00 0.00 68 1008.8
20260505015047 20 178 0.0 0.0 0.00 0.00 0.00 67 1008.8
20260505014544 20 178 0.0 0.0 0.00 0.00 0.00 67 1008.5
20260505014041 20 178 0.0 0.0 0.00 0.00 0.00 66 1008.6
20260505013538 20 178 0.0 0.0 0.00 0.00 0.00 65 1008.5
20260505013036 21 178 0.0 0.0 0.00 0.00 0.00 64 1008.5
20260505012534 21 178 0.0 0.0 0.00 0.00 0.00 63 1008.4
20260505012030 21 178 0.0 0.0 0.00 0.00 0.00 61 1008.2
20260505011526 22 178 0.0 0.0 0.00 0.00 0.00 59 1008.5
20260505011023 21 182 1.6 1.6 0.00 0.00 0.00 59 1008.1
20260505010518 22 189 0.0 1.6 0.00 0.00 0.00 60 1008.3
20260505010016 22 206 1.6 3.2 0.00 0.00 0.00 60 1008.2
20260505005512 22 177 0.0 0.0 0.00 0.00 0.00 59 1008.2
20260505005010 22 180 0.0 0.0 0.00 0.00 0.00 58 1008.0
20260505004506 22 181 0.0 3.2 0.00 0.00 0.00 57 1008.3
20260505004003 22 196 1.6 1.6 0.00 0.00 0.00 57 1008.0
20260505003500 22 186 0.0 3.2 0.00 0.00 0.00 56 1008.1
20260505002956 22 199 1.6 1.6 0.00 0.00 0.00 56 1008.2
20260505002452 23 209 0.0 1.6 0.00 0.00 0.00 56 1008.3
20260505001951 23 190 1.6 3.2 0.00 0.00 0.00 55 1008.3
20260505001448 23 188 0.0 3.2 0.00 0.00 0.00 55 1008.2
20260505000945 23 188 0.0 3.2 0.00 0.00 0.00 55 1008.3
20260505000443 23 186 3.2 3.2 0.00 0.00 0.00 54 1008.3
20260504235940 23 216 1.6 4.8 0.00 0.00 0.00 53 1008.3
20260504235437 23 184 0.0 3.2 0.00 0.00 0.00 53 1008.5
20260504234933 24 189 1.6 3.2 0.00 0.00 0.00 54 1008.4
20260504234431 24 188 0.0 3.2 0.00 0.00 0.00 53 1008.5
20260504233927 24 185 0.0 3.2 0.00 0.00 0.00 52 1008.3
20260504233423 24 189 1.6 3.2 0.00 0.00 0.00 52 1008.4
20260504232920 24 163 1.6 3.2 0.00 0.00 0.00 52 1008.5
20260504232417 25 196 0.0 3.2 0.00 0.00 0.00 52 1008.6
20260504231914 25 203 1.6 9.7 0.00 0.00 0.00 51 1008.7
20260504231410 25 179 0.0 3.2 0.00 0.00 0.00 51 1008.8
20260504230907 25 177 1.6 1.6 0.00 0.00 0.00 51 1008.8
20260504230404 25 175 0.0 3.2 0.00 0.00 0.00 51 1008.9
20260504225903 25 194 0.0 3.2 0.00 0.00 0.00 50 1009.1
20260504225359 25 162 1.6 3.2 0.00 0.00 0.00 50 1008.9
20260504224857 25 202 0.0 3.2 0.00 0.00 0.00 49 1009.0
20260504224353 25 184 3.2 6.4 0.00 0.00 0.00 47 1008.9
20260504223850 25 170 3.2 9.7 0.00 0.00 0.00 48 1008.9
20260504223345 26 182 6.4 9.7 0.00 0.00 0.00 46 1008.9
20260504222842 26 178 8.0 11.3 0.00 0.00 0.00 47 1008.8
20260504222339 25 188 0.0 6.4 0.00 0.00 0.00 48 1008.9
20260504221837 25 168 3.2 14.5 0.00 0.00 0.00 47 1009.1
20260504221334 25 205 3.2 4.8 0.00 0.00 0.00 48 1009.1
20260504220831 25 197 1.6 4.8 0.00 0.00 0.00 48 1009.0
20260504220327 26 184 4.8 6.4 0.00 0.00 0.00 47 1009.0
20260504215825 26 169 3.2 4.8 0.00 0.00 0.00 47 1009.2
20260504215321 25 150 6.4 9.7 0.00 0.00 0.00 48 1009.4
20260504214817 25 181 0.0 1.6 0.00 0.00 0.00 49 1009.3
20260504214314 25 196 1.6 6.4 0.00 0.00 0.00 48 1009.3
20260504213811 26 162 3.2 6.4 0.00 0.00 0.00 48 1009.3
20260504213307 26 176 3.2 11.3 0.00 0.00 0.00 48 1009.2
20260504212804 26 164 4.8 6.4 0.00 0.00 0.00 47 1009.2
20260504212300 26 188 1.6 3.2 0.00 0.00 0.00 48 1009.5
20260504211758 26 184 0.0 3.2 0.00 0.00 0.00 47 1009.6
20260504211254 26 201 1.6 6.4 0.00 0.00 0.00 47 1009.6
20260504210752 26 203 3.2 4.8 0.00 0.00 0.00 47 1009.5
20260504210249 26 195 9.7 14.5 0.00 0.00 0.00 45 1009.6
20260504205746 26 184 4.8 12.9 0.00 0.00 0.00 45 1009.7
20260504205243 26 216 3.2 4.8 0.00 0.00 0.00 47 1009.5
20260504204741 26 199 3.2 16.1 0.00 0.00 0.00 46 1009.6
20260504204239 26 181 3.2 11.3 0.00 0.00 0.00 46 1009.7
20260504203738 26 179 4.8 11.3 0.00 0.00 0.00 46 1009.8
20260504203235 26 119 3.2 4.8 0.00 0.00 0.00 47 1010.2
20260504202735 26 209 1.6 4.8 0.00 0.00 0.00 48 1010.0
20260504202233 26 226 4.8 16.1 0.00 0.00 0.00 47 1010.0
20260504201730 26 152 8.0 9.7 0.00 0.00 0.00 45 1010.3
20260504201227 26 191 8.0 14.5 0.00 0.00 0.00 44 1010.4